Location: Bégole
(43.1574°N, 0.3291°E)
Time: 01:42:21
(UTC+00:00)

deb Delta 89 - Pass Details

Date: 21 February 2024
Orbit: 714 x 2021 km, 97.5° (Epoch: 13 April)

Event Time Altitude Azimuth Distance (km) Brightness Sun altitude
Rises 04:59:47 0° 6° (N) 5,380 ? -20.5°
Reaches altitude 10° 05:03:51 10° 354° (N) 4,452 ? -19.8°
Maximum altitude 05:11:43 23° 310° (NW) 3,515 ? -18.4°
Enters shadow 05:14:55 20° 288° (WNW) 3,657 ? -17.8°
